User: anonymous   Login
Location: Unspecified
(0.0000°N, 0.0000°E)
Time: 21:41:18
(UTC+01:00)
Language:

SeaSat 1 - Orbit

View from above orbital plane
View from above orbital plane
View from above satellite
View from above satellite

Ground track
Ground track

The orbit data is extracted from the following two-line orbital elements,

1 10967U 78064A   14329.48560253  .00000473  00000-0  18093-3 0  4432
2 10967 107.9946 147.6179 0001302 298.5655 127.8384 14.43173836911747
Epoch (UTC): 25 November 2014 11:39:16
Eccentricity: 0.0001302
inclination: 107.9946°
perigee height: 747 km
apogee height: 749 km
right ascension of ascending node: 147.6179°
argument of perigee: 298.5655°
revolutions per day: 14.43173836
mean anomaly at epoch: 127.8384°
orbit number at epoch: 91174

The dashed part of the orbit path shows where the satellite is in the earth's shadow,  

DLR